Content
SEND FEEDBACK

Daily
Averages
Monthly
Summary
United States of America

ST. LOUIS, MISSOURI


Home > North America > United States > Missouri
Elevation: 163 meters     Latitude: 38 45N     Longitude: 090 22W

WEATHER
 
SELECT A DAY
Number of Records: 196,500;   Date Range: 1/1/95 - 8/30/14
 
SHARE

PRINT THIS DATA

[ ← Previous Day ]
WEATHER ALMANAC - 15 MARCH, 2013
[ Next Day → ]
[ °F ]   °C
Weather ElementAverageHighLow
Temperature10.6 °C22.2 °C (1:54 pm)-2.2 °C (3:54 am)
Dewpoint2.5 °C6.7 °C (8:54 pm)-3.9 °C (3:54 am)
Humidity63.3 %92 % (5:54 am)29 % (2:54 pm)
Barometer1011.2 hPa1018.6 hPa (1:54 am)1004.4 hPa (11:54 pm)
Wind Speed2.3 km/h13 km/h (7:54 pm)
Weather ElementAverage
Visibility15.8 km
Wind DirectionENE (53.5 °)

Weather ElementTotal
Precipitation---
Heating Degree Days8.3 (Base 18.3)
Averaged from 23 records on 15 March, 2013
WEATHER CONDITIONS BREAKOUT
WIND DIRECTION BREAKOUT
WEATHER BY HOUR - 15 MARCH, 2013
[ °F ]   °C
Local TimeTemperatureDewpointHumidityBarometerVisibilityWind DirectionWind SpeedGust SpeedPrecipitationEventsConditions
1:54 AM-0.6 °C-2.2 °C89 %1018.6 hPa16.1 kmCalmClear
2:54 AM-1.1 °C-2.8 °C88 %1017.9 hPa16.1 kmCalmClear
3:54 AM-2.2 °C-3.9 °C88 %1016.6 hPa16.1 kmWest (260°)5.6 km/hClear
4:54 AM-1.1 °C-3.3 °C85 %1016.3 hPa12.9 kmCalmClear
5:54 AM-1.7 °C-2.8 °C92 %1015.9 hPa12.9 kmCalmClear
6:54 AM-1.7 °C-3.3 °C89 %1015.9 hPa14.5 kmCalmClear
7:54 AM-1.1 °C-2.2 °C92 %1015.9 hPa16.1 kmCalmMostly Cloudy
8:54 AM2.2 °C0 °C86 %1015.6 hPa16.1 kmCalmMostly Cloudy
9:54 AM6.7 °C2.2 °C73 %1015.2 hPa16.1 kmCalmMostly Cloudy
10:54 AM11.7 °C4.4 °C61 %1014.6 hPa16.1 kmCalmMostly Cloudy
11:54 AM17.2 °C5.6 °C46 %1013.9 hPa16.1 kmCalmMostly Cloudy
12:54 PM20 °C5.6 °C39 %1012.5 hPa16.1 kmCalmMostly Cloudy
1:54 PM22.2 °C4.4 °C31 %1010.8 hPa16.1 kmCalmMostly Cloudy
2:54 PM22.2 °C3.3 °C29 %1009.1 hPa16.1 kmCalmOvercast
3:54 PM22.2 °C4.4 °C31 %1007.8 hPa16.1 kmSSE (150°)9.3 km/hOvercast
4:54 PM21.7 °C5.6 °C35 %1006.8 hPa16.1 kmSSE (150°)9.3 km/hClear
5:54 PM21.7 °C5.6 °C35 %1005.8 hPa16.1 kmSSE (160°)9.3 km/hOvercast
6:54 PM20.6 °C6.1 °C39 %1005.4 hPa16.1 kmCalmMostly Cloudy
7:54 PM20 °C6.1 °C40 %1005.1 hPa16.1 kmSouth (180°)13 km/hMostly Cloudy
8:54 PM16.1 °C6.7 °C54 %1005.1 hPa16.1 kmNNW (330°)5.6 km/hClear
9:54 PM11.7 °C6.7 °C71 %1005.1 hPa16.1 kmCalmClear
10:54 PM10 °C6.1 °C77 %1005.1 hPa16.1 kmCalmClear
11:54 PM7.8 °C5.6 °C86 %1004.4 hPa16.1 kmCalmClear
Hourly data recorded from KSUS, located 0 kilometers away from St. Louis, Missouri







STORIES FROM OUR PARTNERS